DL5ARK Weather Reports


Display with metric or nautical units.
time (UTC)temp
F
wind
direction
speed
MPH
gust
MPH
rain 1hr
in
rain 24hr
in
rain mn
in
humidity
%
barometer
mb
20260506020947 53 337 2.0 2.0 0.00 0.00 0.00 88 992.4
20260506020650 53 225 1.0 1.0 0.00 0.00 0.00 88 992.4
20260506020348 53 225 2.0 2.0 0.00 0.00 0.00 88 992.4
20260506020047 53 225 1.0 2.0 0.00 0.00 0.00 88 992.4
20260506015748 53 270 0.0 0.0 0.00 0.00 0.00 88 992.4
20260506015448 53 225 1.0 1.0 0.00 0.00 0.00 88 992.4
20260506015147 53 337 2.0 2.0 0.00 0.00 0.00 88 992.4
20260506014847 53 180 2.0 2.0 0.00 0.00 0.00 88 992.6
20260506014548 53 225 1.0 1.0 0.00 0.00 0.00 88 992.6
20260506014248 53 337 3.0 3.0 0.00 0.00 0.00 88 992.6
20260506013947 53 270 1.0 1.0 0.00 0.00 0.00 88 992.6
20260506013647 53 337 7.0 7.0 0.00 0.00 0.00 88 992.9
20260506013350 53 202 5.0 5.0 0.00 0.00 0.00 87 992.9
20260506013048 53 225 1.0 2.0 0.00 0.00 0.00 88 992.6
20260506012747 53 202 3.0 3.0 0.00 0.00 0.00 88 992.6
20260506012446 53 180 4.0 4.0 0.00 0.00 0.00 88 992.9
20260506012148 53 337 6.0 6.0 0.00 0.00 0.00 88 992.9
20260506011847 53 225 3.0 3.0 0.00 0.00 0.00 88 992.9
20260506011246 53 180 2.0 2.0 0.00 0.00 0.00 87 992.9
20260506010947 53 202 4.0 4.0 0.00 0.00 0.00 88 992.9
20260506010647 53 225 3.0 3.0 0.00 0.00 0.00 88 992.9
20260506010347 53 225 3.0 3.0 0.00 0.00 0.00 88 992.9
20260506010047 53 225 4.0 4.0 0.00 0.00 0.00 88 992.9
20260506005750 53 337 2.0 2.0 0.00 0.00 0.00 88 992.9
20260506005448 53 202 3.0 3.0 0.00 0.00 0.00 88 992.9
20260506005147 53 202 2.0 2.0 0.00 0.00 0.00 88 992.9
20260506004847 53 202 3.0 3.0 0.00 0.00 0.00 88 992.9
20260506004547 53 337 2.0 2.0 0.00 0.00 0.00 87 992.9
20260506004247 53 225 4.0 4.0 0.00 0.00 0.00 87 992.9
20260506003948 53 225 0.0 0.0 0.00 0.00 0.00 87 992.9
20260506003648 53 225 2.0 2.0 0.00 0.00 0.00 87 992.9
20260506003348 53 225 3.0 3.0 0.00 0.00 0.00 87 992.9
20260506003048 53 337 1.0 1.0 0.00 0.00 0.00 87 993.1
20260506002748 53 225 2.0 2.0 0.00 0.00 0.00 87 993.1
20260506002147 53 225 2.0 2.0 0.00 0.00 0.00 87 993.1
20260506001847 53 247 3.0 3.0 0.00 0.00 0.00 87 993.1
20260506001547 53 225 3.0 3.0 0.00 0.00 0.00 87 993.4
20260506001247 53 180 2.0 2.0 0.00 0.00 0.00 87 993.4
20260506000947 53 180 1.0 1.0 0.00 0.00 0.00 87 993.4
20260506000650 53 180 1.0 2.0 0.00 0.00 0.00 87 993.1
20260506000347 53 225 2.0 2.0 0.00 0.00 0.00 87 993.4
20260506000047 53 225 2.0 2.0 0.00 0.00 0.00 86 993.1
20260505235747 53 202 2.0 2.0 0.00 0.00 0.00 86 993.4
20260505235448 53 180 2.0 2.0 0.00 0.00 0.00 87 993.4
20260505235147 53 202 2.0 2.0 0.00 0.00 0.00 86 993.4
20260505234848 53 337 2.0 2.0 0.00 0.00 0.00 87 993.4
20260505234548 53 202 3.0 3.0 0.00 0.00 0.00 87 993.4
20260505234247 53 202 3.0 3.0 0.00 0.00 0.00 86 993.4
20260505233948 53 337 2.0 2.0 0.00 0.00 0.00 86 993.4
20260505233647 53 180 1.0 1.0 0.00 0.00 0.00 86 993.4
20260505233350 53 180 1.0 2.0 0.00 0.00 0.00 86 993.4
20260505233048 53 180 1.0 1.0 0.00 0.00 0.00 86 993.4
20260505232748 53 180 3.0 3.0 0.00 0.00 0.00 86 993.4
20260505232448 53 180 4.0 4.0 0.00 0.00 0.00 86 993.4
20260505232147 53 337 2.0 2.0 0.00 0.00 0.00 86 993.4
20260505231848 53 225 5.0 5.0 0.00 0.00 0.00 85 993.4
20260505231548 53 180 2.0 2.0 0.00 0.00 0.00 85 993.4
20260505231248 53 202 3.0 3.0 0.00 0.00 0.00 85 993.4
20260505230947 53 202 4.0 4.0 0.00 0.00 0.00 85 993.4
20260505230647 53 225 3.0 4.0 0.00 0.00 0.00 85 993.1
20260505230048 53 225 0.0 0.0 0.00 0.00 0.00 85 992.9
20260505225748 53 225 0.0 0.0 0.00 0.00 0.00 85 992.9
20260505225448 53 247 2.0 2.0 0.00 0.00 0.00 85 992.9
20260505225147 53 247 1.0 1.0 0.00 0.00 0.00 85 992.9
20260505224848 53 225 2.0 2.0 0.00 0.00 0.00 86 992.9
20260505224247 53 247 1.0 1.0 0.00 0.00 0.00 85 993.1
20260505223948 53 337 4.0 4.0 0.00 0.00 0.00 85 992.9
20260505223647 53 225 2.0 2.0 0.00 0.00 0.00 85 992.9
20260505223347 53 202 1.0 1.0 0.00 0.00 0.00 85 993.1
20260505223046 53 225 1.0 1.0 0.00 0.00 0.00 85 993.1
20260505222448 53 225 1.0 1.0 0.00 0.00 0.00 85 992.9
20260505222147 53 225 1.0 1.0 0.00 0.00 0.00 85 992.9
20260505221847 53 270 2.0 2.0 0.00 0.00 0.00 84 993.1
20260505221547 53 270 1.0 1.0 0.00 0.00 0.00 85 993.4
20260505221247 53 225 2.0 2.0 0.00 0.00 0.00 85 993.4
20260505220948 53 225 7.0 7.0 0.00 0.00 0.00 84 993.4
20260505220647 53 270 3.0 3.0 0.00 0.00 0.00 85 993.1
20260505220348 53 337 4.0 4.0 0.00 0.00 0.00 85 993.1
20260505220047 54 337 5.0 5.0 0.00 0.00 0.00 84 993.4
20260505215748 54 225 2.0 2.0 0.00 0.00 0.74 84 993.4
20260505215450 54 225 3.0 3.0 0.00 0.00 0.74 85 993.4
20260505215148 54 180 2.0 2.0 0.00 0.00 0.74 84 993.4
20260505214848 54 225 0.0 0.0 0.00 0.00 0.74 84 993.4
20260505214547 54 202 1.0 2.0 0.00 0.00 0.74 84 993.4
20260505214247 54 180 2.0 2.0 0.00 0.00 0.74 84 993.4
20260505213948 54 225 2.0 2.0 0.00 0.00 0.74 83 993.4
20260505213650 54 202 1.0 1.0 0.00 0.00 0.74 83 993.4
20260505213350 54 337 1.0 1.0 0.00 0.00 0.74 83 993.4
20260505213047 54 225 1.0 1.0 0.00 0.00 0.74 83 993.4
20260505212747 53 180 1.0 1.0 0.00 0.00 0.74 82 993.4
20260505212446 54 202 1.0 1.0 0.00 0.00 0.74 82 993.4
20260505212147 54 0 0.0 0.0 0.00 0.00 0.74 83 993.4
20260505211849 54 0 0.0 0.0 0.00 0.00 0.74 83 993.4
20260505211547 54 0 0.0 0.0 0.00 0.00 0.74 82 993.4
20260505211248 54 0 0.0 0.0 0.00 0.00 0.74 82 993.4
20260505210947 54 315 0.0 0.0 0.00 0.00 0.74 82 993.4
20260505210648 54 270 0.0 0.0 0.00 0.00 0.74 82 993.4
20260505210350 54 270 0.0 0.0 0.00 0.00 0.74 82 993.6
20260505210048 54 270 1.0 1.0 0.00 0.00 0.74 82 993.6
20260505205748 54 315 0.0 0.0 0.00 0.00 0.74 83 993.4
20260505205448 54 225 0.0 0.0 0.00 0.00 0.74 83 993.6
20260505205147 54 225 2.0 2.0 0.00 0.00 0.74 83 993.6
20260505204848 54 225 0.0 0.0 0.00 0.00 0.74 82 993.6
20260505204550 54 180 0.0 0.0 0.00 0.00 0.74 82 993.9
20260505204248 53 180 1.0 1.0 0.00 0.00 0.74 82 993.6
20260505203947 53 180 2.0 2.0 0.00 0.00 0.74 82 993.6
20260505203647 54 202 1.0 1.0 0.00 0.00 0.74 81 993.6
20260505203348 54 225 0.0 0.0 0.00 0.00 0.74 81 993.6
20260505203048 54 202 0.0 0.0 0.00 0.00 0.74 81 993.6
20260505202750 54 270 1.0 1.0 0.00 0.00 0.74 82 993.6
20260505202448 54 225 1.0 1.0 0.00 0.00 0.74 81 993.6
20260505202148 54 225 1.0 1.0 0.00 0.00 0.74 81 993.4
20260505201847 54 337 1.0 1.0 0.00 0.00 0.74 81 993.6
20260505201547 54 225 1.0 1.0 0.00 0.00 0.74 82 993.4
20260505201248 54 337 0.0 0.0 0.00 0.00 0.74 82 993.4
20260505200947 54 270 0.0 0.0 0.00 0.00 0.74 82 993.4
20260505200648 54 225 0.0 0.0 0.00 0.00 0.74 81 993.4
20260505200348 54 337 2.0 2.0 0.00 0.00 0.74 82 993.4
20260505200048 54 225 1.0 1.0 0.00 0.00 0.74 81 993.4
20260505195747 54 270 1.0 1.0 0.00 0.00 0.74 81 993.4
20260505195450 54 270 1.0 1.0 0.00 0.00 0.74 81 993.4
20260505195148 54 270 1.0 1.0 0.00 0.00 0.74 81 993.4
20260505194847 54 202 2.0 2.0 0.00 0.00 0.74 81 993.4
20260505194547 54 270 2.0 2.0 0.00 0.00 0.74 80 993.4
20260505194247 54 202 2.0 2.0 0.00 0.00 0.74 80 993.4
20260505193947 54 225 2.0 2.0 0.00 0.00 0.74 81 993.4
20260505193647 54 337 3.0 4.0 0.00 0.00 0.74 81 993.4
20260505193350 53 225 2.0 2.0 0.00 0.00 0.74 81 993.1
20260505193048 54 225 2.0 2.0 0.00 0.00 0.74 81 993.4
20260505192747 54 225 4.0 4.0 0.00 0.00 0.74 80 993.4
20260505192448 54 202 4.0 4.0 0.00 0.00 0.74 80 993.1
20260505192150 54 337 2.0 2.0 0.00 0.00 0.74 79 992.6
20260505191848 54 0 5.0 5.0 0.00 0.00 0.72 79 992.6
20260505191547 54 337 5.0 5.0 0.00 0.00 0.70 79 992.6
20260505191251 54 45 4.0 4.0 0.00 0.00 0.70 79 992.9
20260505190947 54 22 3.0 3.0 0.00 0.00 0.66 79 992.9
20260505190647 54 0 1.0 2.0 0.00 0.00 0.64 79 993.1
20260505190347 54 0 0.0 0.0 0.00 0.00 0.62 80 993.4
20260505190048 54 0 1.0 1.0 0.00 0.00 0.59 80 993.4
20260505185750 54 0 0.0 0.0 0.00 0.00 0.59 80 993.4
20260505185448 54 0 2.0 2.0 0.00 0.00 0.58 81 993.4
20260505185147 54 337 4.0 4.0 0.00 0.00 0.56 81 993.4
20260505184848 54 0 5.0 5.0 0.00 0.00 0.53 81 993.4
20260505184547 55 315 1.0 2.0 0.00 0.00 0.52 80 993.6
20260505184248 55 337 4.0 4.0 0.00 0.00 0.50 80 993.6
20260505183950 54 315 3.0 3.0 0.00 0.00 0.50 80 993.9
20260505183647 55 22 4.0 4.0 0.00 0.00 0.48 80 993.9
20260505183348 54 0 4.0 4.0 0.00 0.00 0.48 80 993.9
20260505183047 54 337 3.0 3.0 0.00 0.00 0.45 78 993.9
20260505182750 55 0 3.0 3.0 0.00 0.00 0.45 78 993.9
20260505182148 55 337 2.0 2.0 0.00 0.00 0.44 78 994.1
20260505181848 55 315 3.0 3.0 0.00 0.00 0.44 78 994.1
20260505181547 55 315 4.0 4.0 0.00 0.00 0.42 78 993.9
20260505181247 55 315 6.0 6.0 0.00 0.00 0.39 78 993.9
20260505180948 55 315 3.0 3.0 0.00 0.00 0.38 78 993.9
20260505180347 55 337 5.0 5.0 0.00 0.00 0.34 78 993.9
20260505180047 55 337 3.0 3.0 0.00 0.00 0.32 77 993.9
20260505175748 55 315 2.0 2.0 0.00 0.00 0.32 77 993.9
20260505175447 55 135 3.0 4.0 0.00 0.00 0.29 78 993.9
20260505175148 56 180 11.0 11.0 0.00 0.00 0.24 79 993.9
20260505174548 57 202 9.0 10.0 0.00 0.00 0.08 78 993.9
20260505174248 58 157 5.0 5.0 0.00 0.00 0.02 77 993.4
20260505173948 59 180 8.0 8.0 0.00 0.00 0.00 76 993.4
20260505173647 59 337 1.0 1.0 0.00 0.00 0.00 73 993.4
20260505173048 59 0 4.0 4.0 0.00 0.00 0.00 74 992.4
20260505172747 59 22 3.0 4.0 0.00 0.00 0.00 74 992.1
20260505172447 59 337 8.0 8.0 0.00 0.00 0.00 73 991.9
20260505172147 60 67 8.0 8.0 0.00 0.00 0.00 73 991.9
20260505171847 60 337 2.0 2.0 0.00 0.00 0.00 73 991.9
20260505171547 60 22 4.0 4.0 0.00 0.00 0.00 72 991.9
20260505171250 61 0 12.0 13.0 0.00 0.00 0.00 72 991.9
20260505170947 61 0 4.0 4.0 0.00 0.00 0.00 72 991.9
20260505170647 61 0 13.0 14.0 0.00 0.00 0.00 71 991.9
20260505170347 61 22 5.0 5.0 0.00 0.00 0.00 70 991.9
20260505170048 62 337 2.0 2.0 0.00 0.00 0.00 70 991.9
20260505165148 62 67 3.0 3.0 0.00 0.00 0.00 70 991.9
20260505164847 62 337 10.0 10.0 0.00 0.00 0.00 70 991.9
20260505164246 62 0 4.0 4.0 0.00 0.00 0.00 69 991.9
20260505163947 62 45 2.0 2.0 0.00 0.00 0.00 68 991.9
20260505163647 62 22 4.0 4.0 0.00 0.00 0.00 69 991.9
20260505163348 63 45 3.0 3.0 0.00 0.00 0.00 68 992.1
20260505163048 63 22 1.0 1.0 0.00 0.00 0.00 68 992.1
20260505162447 63 22 1.0 1.0 0.00 0.00 0.00 67 992.1
20260505162147 63 90 2.0 2.0 0.00 0.00 0.00 67 992.4
20260505161848 63 337 3.0 3.0 0.00 0.00 0.00 67 992.4
20260505161548 63 337 5.0 5.0 0.00 0.00 0.00 67 992.1
20260505161247 63 22 10.0 11.0 0.00 0.00 0.00 67 992.1
20260505160950 63 22 3.0 4.0 0.00 0.00 0.00 66 992.4
20260505160647 64 67 4.0 4.0 0.00 0.00 0.00 65 992.4
20260505160347 64 67 1.0 1.0 0.00 0.00 0.00 65 992.4
20260505153347 65 337 2.0 2.0 0.00 0.00 0.00 63 992.6
20260505153048 65 90 4.0 4.0 0.00 0.00 0.00 62 992.9
20260505152748 65 45 1.0 1.0 0.00 0.00 0.00 62 992.6
20260505152447 66 45 5.0 5.0 0.00 0.00 0.00 63 992.6
20260505152148 66 90 9.0 10.0 0.00 0.00 0.00 61 992.9
20260505151848 66 67 1.0 1.0 0.00 0.00 0.00 62 992.9
20260505151548 66 90 7.0 7.0 0.00 0.00 0.00 62 992.9
20260505151247 66 45 3.0 3.0 0.00 0.00 0.00 61 992.6
20260505150947 66 337 3.0 3.0 0.00 0.00 0.00 61 992.9
20260505150648 66 337 4.0 4.0 0.00 0.00 0.00 61 992.9
20260505150350 66 337 6.0 6.0 0.00 0.00 0.00 60 992.9
20260505140647 68 337 2.0 2.0 0.00 0.00 0.00 56 993.1
20260505140348 68 67 11.0 11.0 0.00 0.00 0.00 55 993.1
20260505124847 73 90 6.0 6.0 0.00 0.00 0.00 50 993.9
20260505124550 74 90 8.0 8.0 0.00 0.00 0.00 50 993.9
20260505124247 75 90 6.0 6.0 0.00 0.00 0.00 49 993.9
20260505123948 76 90 6.0 6.0 0.00 0.00 0.00 53 993.9
20260505123647 75 45 1.0 1.0 0.00 0.00 0.00 54 993.9
20260505123347 74 22 7.0 7.0 0.00 0.00 0.00 54 993.9
20260505123050 73 0 1.0 1.0 0.00 0.00 0.00 54 993.9
20260505122748 72 90 2.0 2.0 0.00 0.00 0.00 53 993.9
20260505122448 72 90 8.0 8.0 0.00 0.00 0.00 52 993.9
20260505122147 72 90 3.0 3.0 0.00 0.00 0.00 54 993.9
20260505121850 71 45 1.0 1.0 0.00 0.00 0.00 55 993.9
20260505121547 71 22 1.0 1.0 0.00 0.00 0.00 54 993.9
20260505121248 72 0 0.0 0.0 0.00 0.00 0.00 54 993.9
20260505120947 72 90 7.0 7.0 0.00 0.00 0.00 53 994.1
20260505120648 71 45 0.0 0.0 0.00 0.00 0.00 52 994.1
20260505120350 71 67 1.0 1.0 0.00 0.00 0.00 52 994.1
20260505120047 71 67 0.0 0.0 0.00 0.00 0.00 52 994.1
20260505115747 72 0 5.0 5.0 0.00 0.00 0.00 51 994.4
20260505115447 73 337 4.0 4.0 0.00 0.00 0.00 51 994.1
20260505115148 73 337 10.0 10.0 0.00 0.00 0.00 49 994.1
20260505114847 73 45 2.0 2.0 0.00 0.00 0.00 50 994.1
20260505114550 72 22 4.0 4.0 0.00 0.00 0.00 47 993.9
20260505114247 72 0 6.0 6.0 0.00 0.00 0.00 47 994.1
20260505113947 74 0 5.0 5.0 0.00 0.00 0.00 48 994.1
20260505113647 74 270 0.0 0.0 0.00 0.00 0.00 46 994.1
20260505113348 73 315 2.0 2.0 0.00 0.00 0.00 45 994.4
20260505113047 72 22 1.0 1.0 0.00 0.00 0.00 45 994.4
20260505112748 74 0 0.0 0.0 0.00 0.00 0.00 46 994.4
20260505112447 75 337 0.0 0.0 0.00 0.00 0.00 47 994.4
20260505112148 74 270 3.0 4.0 0.00 0.00 0.00 46 994.4
20260505111847 72 337 3.0 3.0 0.00 0.00 0.00 45 994.4
20260505111550 73 337 0.0 0.0 0.00 0.00 0.00 47 994.4
20260505111247 71 0 3.0 3.0 0.00 0.00 0.00 46 994.6
20260505110947 73 0 7.0 7.0 0.00 0.00 0.00 49 994.4
20260505110648 73 225 0.0 0.0 0.00 0.00 0.00 49 994.4
20260505110350 72 180 0.0 0.0 0.00 0.00 0.00 50 994.6
20260505102147 70 315 3.0 3.0 0.00 0.00 0.00 52 995.1
20260505101848 71 225 0.0 0.0 0.00 0.00 0.00 54 995.1
20260505101547 70 90 0.0 0.0 0.00 0.00 0.00 52 995.3
20260505100947 69 337 0.0 0.0 0.00 0.00 0.00 55 995.3
20260505100647 69 270 0.0 0.0 0.00 0.00 0.00 53 995.3
20260505100348 71 45 0.0 0.0 0.00 0.00 0.00 61 995.1
20260505100047 70 135 0.0 0.0 0.00 0.00 0.00 60 995.3
20260505095448 70 22 0.0 0.0 0.00 0.00 0.00 64 995.6
20260505095147 69 90 0.0 0.0 0.00 0.00 0.00 65 995.3
20260505094847 69 315 0.0 0.0 0.00 0.00 0.00 66 995.3
20260505094547 68 0 0.0 0.0 0.00 0.00 0.00 66 995.3
20260505094248 67 0 3.0 3.0 0.00 0.00 0.00 67 995.3
20260505093947 67 0 4.0 4.0 0.00 0.00 0.00 67 995.6
20260505093647 67 22 0.0 0.0 0.00 0.00 0.00 67 995.6
20260505093347 68 0 0.0 0.0 0.00 0.00 0.00 68 995.6
20260505093047 67 337 0.0 0.0 0.00 0.00 0.00 68 995.6
20260505092448 67 0 0.0 0.0 0.00 0.00 0.00 67 995.8
20260505092147 67 0 0.0 0.0 0.00 0.00 0.00 67 995.8
20260505091848 67 22 0.0 0.0 0.00 0.00 0.00 67 995.8
20260505091548 66 90 3.0 3.0 0.00 0.00 0.00 67 995.8
20260505091247 66 22 0.0 0.0 0.00 0.00 0.00 68 995.8
20260505090947 66 0 1.0 1.0 0.00 0.00 0.00 68 995.8
20260505090647 66 0 0.0 0.0 0.00 0.00 0.00 67 995.8
20260505090348 67 135 0.0 0.0 0.00 0.00 0.00 68 995.8
20260505090047 68 315 2.0 2.0 0.00 0.00 0.00 69 995.8
20260505085746 67 22 0.0 0.0 0.00 0.00 0.00 70 995.8
20260505085450 67 67 0.0 0.0 0.00 0.00 0.00 70 996.1
20260505085148 66 22 0.0 0.0 0.00 0.00 0.00 70 996.1
20260505084847 66 337 0.0 0.0 0.00 0.00 0.00 71 996.1
20260505084548 65 0 0.0 0.0 0.00 0.00 0.00 72 996.1
20260505084247 64 0 0.0 0.0 0.00 0.00 0.00 71 996.1
20260505083948 64 90 0.0 0.0 0.00 0.00 0.00 72 996.1
20260505083348 63 0 0.0 0.0 0.00 0.00 0.00 72 996.3
20260505083048 63 22 0.0 0.0 0.00 0.00 0.00 71 996.3
20260505082747 63 337 0.0 0.0 0.00 0.00 0.00 71 996.3
20260505082447 63 292 0.0 0.0 0.00 0.00 0.00 71 996.3
20260505082147 63 112 0.0 0.0 0.00 0.00 0.00 72 996.3
20260505081847 62 112 0.0 0.0 0.00 0.00 0.00 72 996.3
20260505081548 62 135 0.0 0.0 0.00 0.00 0.00 71 996.3
20260505081247 63 135 0.0 0.0 0.00 0.00 0.00 71 996.3
20260505080947 63 337 0.0 0.0 0.00 0.00 0.00 71 996.3
20260505080648 63 270 0.0 0.0 0.00 0.00 0.00 71 996.3
20260505080048 64 270 0.0 0.0 0.00 0.00 0.00 71 996.3
20260505075748 64 270 0.0 0.0 0.00 0.00 0.00 71 996.3
20260505075448 64 292 0.0 0.0 0.00 0.00 0.00 71 996.3
20260505075148 63 135 0.0 0.0 0.00 0.00 0.00 71 996.3
20260505074848 63 90 0.0 0.0 0.00 0.00 0.00 71 996.3
20260505074247 64 0 0.0 0.0 0.00 0.00 0.00 72 996.3
20260505073948 63 0 0.0 0.0 0.00 0.00 0.00 72 996.3
20260505073647 63 45 0.0 0.0 0.00 0.00 0.00 73 996.3
20260505073348 63 22 0.0 0.0 0.00 0.00 0.00 73 996.3
20260505073047 63 0 0.0 0.0 0.00 0.00 0.00 73 996.3
20260505072750 62 337 0.0 0.0 0.00 0.00 0.00 73 996.3
20260505072447 63 0 0.0 0.0 0.00 0.00 0.00 73 996.3
20260505072148 63 180 0.0 0.0 0.00 0.00 0.00 73 996.3
20260505071847 62 315 0.0 0.0 0.00 0.00 0.00 74 996.3
20260505071547 62 315 0.0 0.0 0.00 0.00 0.00 74 996.3
20260505071248 62 337 0.0 0.0 0.00 0.00 0.00 74 996.3
20260505070947 62 270 0.0 0.0 0.00 0.00 0.00 74 996.3
20260505070648 62 337 0.0 0.0 0.00 0.00 0.00 75 996.3
20260505070348 62 180 0.0 0.0 0.00 0.00 0.00 76 996.3
20260505070047 62 270 0.0 0.0 0.00 0.00 0.00 76 996.3
20260505065747 61 270 0.0 0.0 0.00 0.00 0.00 76 996.3
20260505065450 61 180 0.0 0.0 0.00 0.00 0.00 76 996.3
20260505065148 61 225 0.0 0.0 0.00 0.00 0.00 77 996.3
20260505064847 61 337 0.0 0.0 0.00 0.00 0.00 77 996.3
20260505064547 61 337 0.0 0.0 0.00 0.00 0.00 77 996.3
20260505064247 61 337 0.0 0.0 0.00 0.00 0.00 77 996.3
20260505063948 61 225 0.0 0.0 0.00 0.00 0.00 76 996.3
20260505063647 61 180 0.0 0.0 0.00 0.00 0.00 76 996.3
20260505063347 61 202 0.0 0.0 0.00 0.00 0.00 76 996.3
20260505063046 60 112 0.0 0.0 0.00 0.00 0.00 76 996.1
20260505062747 60 315 0.0 0.0 0.00 0.00 0.00 76 996.1
20260505062147 60 180 0.0 0.0 0.00 0.00 0.00 76 996.3
20260505061847 60 135 0.0 0.0 0.00 0.00 0.00 77 996.3
20260505061548 59 292 0.0 0.0 0.00 0.00 0.00 77 996.3
20260505061248 59 90 0.0 0.0 0.00 0.00 0.00 77 996.3
20260505060947 59 202 0.0 0.0 0.00 0.00 0.00 77 996.3
20260505060650 59 337 0.0 0.0 0.00 0.00 0.00 78 996.3
20260505060347 59 225 0.0 0.0 0.00 0.00 0.00 77 996.3
20260505060048 59 270 0.0 0.0 0.00 0.00 0.00 78 996.3
20260505055747 58 270 0.0 0.0 0.00 0.00 0.00 78 996.3
20260505055448 58 225 0.0 0.0 0.00 0.00 0.00 78 996.3
20260505055147 57 202 0.0 0.0 0.00 0.00 0.00 78 996.3
20260505054547 57 337 0.0 0.0 0.00 0.00 0.00 77 996.1
20260505054247 57 292 0.0 0.0 0.00 0.00 0.00 77 996.3
20260505053947 57 225 0.0 0.0 0.00 0.00 0.00 77 996.1
20260505053647 57 337 0.0 0.0 0.00 0.00 0.00 77 996.1
20260505053048 57 337 0.0 0.0 0.00 0.00 0.00 76 996.1
20260505052746 57 225 0.0 0.0 0.00 0.00 0.00 76 996.1
20260505052448 57 225 0.0 0.0 0.00 0.00 0.00 76 996.1
20260505052147 57 315 0.0 0.0 0.00 0.00 0.00 76 995.8
20260505051850 57 337 0.0 0.0 0.00 0.00 0.00 76 995.8
20260505051548 57 135 0.0 0.0 0.00 0.00 0.00 77 995.8
20260505051247 57 225 0.0 0.0 0.00 0.00 0.00 76 996.1
20260505050948 57 337 0.0 0.0 0.00 0.00 0.00 77 995.8
20260505050647 57 112 0.0 0.0 0.00 0.00 0.00 76 995.8
20260505050347 56 337 0.0 0.0 0.00 0.00 0.00 77 995.8
20260505041548 56 315 0.0 0.0 0.00 0.00 0.00 77 996.3
20260505041248 56 315 0.0 0.0 0.00 0.00 0.00 76 996.3
20260505040947 55 45 0.0 0.0 0.00 0.00 0.00 77 996.3
20260505040647 55 45 0.0 0.0 0.00 0.00 0.00 77 996.3
20260505040348 55 45 0.0 0.0 0.00 0.00 0.00 77 996.3
20260505040048 56 337 0.0 0.0 0.00 0.00 0.00 77 996.3
20260505035748 55 112 0.0 0.0 0.00 0.00 0.00 76 996.3
20260505035148 55 90 0.0 0.0 0.00 0.00 0.00 77 996.3
20260505034847 55 90 0.0 0.0 0.00 0.00 0.00 76 996.3
20260505034548 55 292 0.0 0.0 0.00 0.00 0.00 76 996.6
20260505034248 55 45 0.0 0.0 0.00 0.00 0.00 76 996.8
20260505033948 55 0 0.0 0.0 0.00 0.00 0.00 76 996.6
20260505033650 55 315 0.0 0.0 0.00 0.00 0.00 75 996.6
20260505033346 55 315 0.0 0.0 0.00 0.00 0.00 75 996.8
20260505033048 55 135 0.0 0.0 0.00 0.00 0.00 75 996.8
20260505032748 55 112 0.0 0.0 0.00 0.00 0.00 75 996.8
20260505032447 55 90 0.0 0.0 0.00 0.00 0.00 75 997.1
20260505032147 56 270 0.0 0.0 0.00 0.00 0.00 75 997.1
20260505031847 56 270 0.0 0.0 0.00 0.00 0.00 75 997.1
20260505031547 56 270 0.0 0.0 0.00 0.00 0.00 75 997.1
20260505031247 56 337 1.0 1.0 0.00 0.00 0.00 75 997.3
20260505030948 55 292 0.0 0.0 0.00 0.00 0.00 75 997.3
20260505030648 55 337 0.0 0.0 0.00 0.00 0.00 76 997.3
20260505030350 55 337 0.0 0.0 0.00 0.00 0.00 76 997.3
20260505030047 55 337 0.0 0.0 0.00 0.00 0.00 76 997.3
20260505025748 55 0 0.0 0.0 0.00 0.00 0.00 76 997.6
20260505025448 55 22 0.0 0.0 0.00 0.00 0.00 76 997.6
20260505025147 55 67 0.0 0.0 0.00 0.00 0.00 76 997.6
20260505024847 55 90 1.0 1.0 0.00 0.00 0.00 76 997.8
20260505024248 55 90 0.0 0.0 0.00 0.00 0.00 75 998.1
20260505023948 55 90 0.0 0.0 0.00 0.00 0.00 75 998.1
20260505023647 55 112 0.0 0.0 0.00 0.00 0.00 74 998.3
20260505023347 55 180 0.0 0.0 0.00 0.00 0.00 74 998.3
20260505023047 56 180 0.0 0.0 0.00 0.00 0.00 73 998.3
20260505022448 56 180 0.0 0.0 0.00 0.00 0.00 73 998.3
20260505022147 56 180 0.0 0.0 0.00 0.00 0.00 73 998.3
20260505021847 56 337 0.0 0.0 0.00 0.00 0.00 73 998.3
20260505021547 56 180 0.0 0.0 0.00 0.00 0.00 72 998.3
20260505021247 56 180 0.0 0.0 0.00 0.00 0.00 72 998.3